FW0689 Weather Reports


Display with metric or nautical units.
time (UTC)temp
F
wind
direction
speed
MPH
gust
MPH
rain 1hr
in
rain 24hr
in
rain mn
in
humidity
%
barometer
mb
20260831093126 65 202 0.0 0.0 0.00 0.00 0.00 39 1012.9
20260831092143 65 220 0.0 0.0 0.00 0.00 0.00 39 1013.0
20260831091127 66 201 0.0 0.0 0.00 0.00 0.00 39 1012.9
20260831085226 64 201 0.0 0.0 0.00 0.00 0.00 40 1013.0
20260831084226 63 202 0.0 0.0 0.00 0.00 0.00 40 1012.9
20260831083325 64 220 0.0 0.0 0.00 0.00 0.00 40 1013.1
20260831082328 65 201 0.0 0.0 0.00 0.00 0.00 40 1013.0
20260831081327 66 206 0.0 0.0 0.00 0.00 0.00 39 1012.7
20260831080327 65 220 0.0 0.0 0.00 0.00 0.00 40 1012.7
20260831075327 65 204 0.0 0.0 0.00 0.00 0.00 40 1012.8
20260831074326 64 208 0.0 0.0 0.00 0.00 0.00 39 1013.0
20260831073328 64 199 0.0 0.0 0.00 0.00 0.00 40 1013.0
20260831072327 63 206 0.0 0.0 0.00 0.00 0.00 40 1013.1
20260831071328 63 211 0.0 0.0 0.00 0.00 0.00 40 1013.3
20260831070327 63 214 0.0 0.0 0.00 0.00 0.00 40 1013.2
20260831065343 63 200 0.0 0.0 0.00 0.00 0.00 40 1013.1
20260831064344 63 212 0.0 0.0 0.00 0.00 0.00 40 1013.1
20260831063327 63 202 0.0 0.0 0.00 0.00 0.00 40 1012.8
20260831062326 62 201 0.0 0.0 0.00 0.00 0.00 40 1012.9
20260831061426 62 205 0.0 0.0 0.00 0.00 0.00 41 1013.0
20260831060327 62 196 0.0 0.0 0.00 0.00 0.00 41 1012.9
20260831055325 61 191 0.0 0.0 0.00 0.00 0.00 41 1012.9
20260831054329 61 200 0.0 0.0 0.00 0.00 0.00 41 1012.9
20260831053427 61 200 0.0 0.0 0.00 0.00 0.00 41 1012.9
20260831052526 61 202 0.0 0.0 0.00 0.00 0.00 41 1013.0
20260831050626 60 202 0.0 0.0 0.00 0.00 0.00 41 1012.8
20260831045626 60 189 0.0 0.0 0.00 0.00 0.00 41 1012.6
20260831044628 60 182 0.0 0.0 0.00 0.00 0.00 41 1012.7
20260831042725 60 194 0.0 0.0 0.00 0.00 0.00 41 1012.8
20260831041728 60 194 0.0 0.0 0.00 0.00 0.00 41 1012.8
20260831040727 60 196 0.0 0.0 0.00 0.00 0.00 41 1012.7
20260831035826 60 162 0.0 0.0 0.00 0.00 0.00 41 1012.7
20260831034844 60 159 0.0 0.0 0.00 0.00 0.00 41 1012.7
20260831033928 61 132 0.0 0.0 0.00 0.00 0.00 41 1012.8
20260831032927 61 175 0.0 0.0 0.00 0.00 0.00 40 1012.9
20260831032025 61 196 0.0 0.0 0.00 0.00 0.00 40 1013.0
20260831031027 61 181 0.0 0.0 0.00 0.00 0.00 41 1012.9
20260831025029 61 186 0.0 0.0 0.00 0.00 0.00 41 1013.0
20260831024042 61 196 0.0 0.0 0.00 0.00 0.00 41 1013.1
20260831023126 62 201 0.0 0.0 0.00 0.00 0.00 41 1013.0
20260831022128 61 204 0.0 0.0 0.00 0.00 0.00 41 1013.2
20260831021225 61 200 0.0 0.0 0.00 0.00 0.00 41 1013.2
20260831015241 62 198 0.0 0.0 0.00 0.00 0.00 41 1013.2
20260831011426 62 126 0.0 0.0 0.00 0.00 0.00 41 1013.4
20260831010427 62 165 0.0 0.0 0.00 0.00 0.00 40 1013.5
20260831005426 62 178 0.0 0.0 0.00 0.00 0.00 41 1013.5
20260831004427 62 194 0.0 0.0 0.00 0.00 0.00 41 1013.7
20260831002428 62 193 0.0 0.0 0.00 0.00 0.00 41 1013.8
20260831001429 62 198 0.0 0.0 0.00 0.00 0.00 41 1013.8
20260831000427 62 181 0.0 0.0 0.00 0.00 0.00 41 1013.9
20260830235426 62 150 0.0 0.0 0.00 0.00 0.00 41 1013.9
20260830234427 63 146 0.0 0.0 0.00 0.00 0.00 40 1013.8
20260830233526 63 156 0.0 0.0 0.00 0.00 0.00 40 1013.8
20260830232528 63 152 0.0 0.0 0.00 0.00 0.00 40 1013.8
20260830224627 61 123 0.0 0.0 0.00 0.00 0.00 39 1014.4
20260830223627 61 127 0.0 0.0 0.00 0.00 0.00 39 1014.7
20260830222628 61 112 0.0 0.0 0.00 0.00 0.00 40 1014.8
20260830221627 61 112 0.0 0.0 0.00 0.00 0.00 40 1014.7
20260830220628 61 112 0.0 0.0 0.00 0.00 0.00 41 1014.9
20260830215632 61 112 0.0 0.0 0.00 0.00 0.00 41 1015.1
20260830214645 61 112 0.0 0.0 0.00 0.00 0.00 40 1015.2
20260830213630 61 112 0.0 0.0 0.00 0.00 0.00 40 1015.1
20260830212630 62 112 0.0 0.0 0.00 0.00 0.00 40 1015.3
20260830211630 61 118 0.0 0.0 0.00 0.00 0.00 40 1015.2
20260830210632 61 112 0.0 0.0 0.00 0.00 0.00 40 1015.2
20260830205630 61 112 0.0 0.0 0.00 0.00 0.00 41 1015.3
20260830204631 61 112 0.0 0.0 0.00 0.00 0.00 41 1015.3
20260830203728 62 112 0.0 0.0 0.00 0.00 0.00 41 1015.4
20260830202732 62 112 0.0 0.0 0.00 0.00 0.00 40 1015.4
20260830201831 62 112 0.0 0.0 0.00 0.00 0.00 40 1015.6
20260830200831 62 90 0.0 0.0 0.00 0.00 0.00 41 1015.5
20260830195845 61 90 0.0 0.0 0.00 0.00 0.00 41 1015.5
20260830194831 62 90 0.0 0.0 0.00 0.00 0.00 41 1015.7
20260830194731 62 90 0.0 0.0 0.00 0.00 0.00 41 1015.7
20260830191830 63 90 0.0 0.0 0.00 0.00 0.00 40 1015.9
20260830190831 63 90 0.0 0.0 0.00 0.00 0.00 41 1016.0
20260830185830 63 345 0.0 0.0 0.00 0.00 0.00 40 1016.0
20260830184831 63 315 0.0 0.0 0.00 0.00 0.00 40 1015.8
20260830183929 64 315 0.0 0.0 0.00 0.00 0.00 40 1015.8
20260830182932 64 315 0.0 0.0 0.00 0.00 0.00 40 1016.0
20260830181946 65 315 0.0 0.0 0.00 0.00 0.00 40 1015.9
20260830180031 66 67 0.0 0.0 0.00 0.00 0.00 39 1015.7
20260830175031 66 180 0.0 0.0 0.00 0.00 0.00 39 1015.9
20260830174130 66 180 0.0 0.0 0.00 0.00 0.00 39 1015.8
20260830173132 67 247 0.0 0.0 0.00 0.00 0.00 39 1015.8
20260830172148 67 253 0.0 0.0 0.00 0.00 0.00 39 1015.8
20260830171130 67 258 0.0 0.0 0.00 0.00 0.00 39 1015.7
20260830165131 68 228 0.0 0.0 0.00 0.00 0.00 39 1015.7
20260830164131 68 229 0.0 0.0 0.00 0.00 0.00 39 1015.8
20260830163230 68 238 0.0 0.0 0.00 0.00 0.00 39 1015.7
20260830162229 68 254 0.0 0.0 0.00 0.00 0.00 38 1015.8
20260830161230 68 243 0.0 0.0 0.00 0.00 0.00 39 1015.8
20260830160231 68 270 0.0 0.0 0.00 0.00 0.00 39 1015.8
20260830155330 68 266 0.0 0.0 0.00 0.00 0.00 39 1015.8
20260830153429 68 239 0.0 0.0 0.00 0.00 0.00 39 1015.7
20260830152429 68 260 0.0 0.0 0.00 0.00 0.00 38 1015.7
20260830151430 68 257 0.0 0.0 0.00 0.00 0.00 38 1015.7
20260830150431 67 236 0.0 0.0 0.00 0.00 0.00 37 1015.8
20260830145432 67 225 0.0 0.0 0.00 0.00 0.00 37 1015.8
20260830144529 66 237 0.0 0.0 0.00 0.00 0.00 37 1015.7
20260830143545 66 220 0.0 0.0 0.00 0.00 0.00 38 1015.7
20260830142529 66 246 0.0 0.0 0.00 0.00 0.00 38 1015.9
20260830141531 65 235 0.0 0.0 0.00 0.00 0.00 38 1015.9
20260830140531 65 220 0.0 0.0 0.00 0.00 0.00 38 1015.8
20260830135533 65 238 0.0 0.0 0.00 0.00 0.00 38 1015.9
20260830134545 66 267 0.0 0.0 0.00 0.00 0.00 38 1015.7
20260830133631 66 251 0.0 0.0 0.00 0.00 0.00 38 1015.6
20260830132630 66 235 0.0 0.0 0.00 0.00 0.00 38 1015.6
20260830131629 66 263 0.0 0.0 0.00 0.00 0.00 38 1015.5
20260830130629 66 274 0.0 0.0 0.00 0.00 0.00 38 1015.3
20260830125630 66 303 0.0 0.0 0.00 0.00 0.00 38 1015.2
20260830124632 66 284 0.0 0.0 0.00 0.00 0.00 38 1014.9
20260830123729 66 227 0.0 0.0 0.00 0.00 0.00 38 1014.8
20260830122733 66 229 0.0 0.0 0.00 0.00 0.00 38 1014.8
20260830121831 66 213 0.0 0.0 0.00 0.00 0.00 39 1014.8
20260830120929 66 208 0.0 0.0 0.00 0.00 0.00 39 1014.6
20260830115947 66 204 0.0 0.0 0.00 0.00 0.00 39 1014.5
20260830114929 66 213 0.0 0.0 0.00 0.00 0.00 38 1014.5
20260830112930 66 237 0.0 0.0 0.00 0.00 0.00 39 1014.3
20260830112029 66 227 0.0 0.0 0.00 0.00 0.00 38 1014.3
20260830111030 66 217 0.0 0.0 0.00 0.00 0.00 38 1014.2
20260830110031 66 224 0.0 0.0 0.00 0.00 0.00 38 1014.0
20260830105031 66 217 0.0 0.0 0.00 0.00 0.00 38 1014.0
20260830103130 65 209 0.0 0.0 0.00 0.00 0.00 38 1014.0
20260830100232 65 210 0.0 0.0 0.00 0.00 0.00 39 1014.0
20260830095329 65 209 0.0 0.0 0.00 0.00 0.00 39 1013.8